EW4729 Weather Reports


Display with metric or nautical units.
time (UTC)temp
F
wind
direction
speed
MPH
gust
MPH
rain 1hr
in
rain 24hr
in
rain mn
in
humidity
%
barometer
mb
20260509062554 74 159 2.0 9.0 0.00 0.00 0.00 93 1010.1
20260509062051 74 152 4.0 9.0 0.00 0.00 0.00 93 1010.0
20260509061559 74 146 2.0 7.0 0.00 0.00 0.00 93 1010.2
20260509061056 74 140 1.0 7.0 0.00 0.00 0.00 93 1010.3
20260509060552 74 0 1.0 7.0 0.00 0.00 0.00 93 1010.5
20260509060054 74 0 0.0 5.0 0.00 0.00 0.00 93 1010.7
20260509055552 74 0 1.0 5.0 0.00 0.00 0.00 93 1010.8
20260509055057 74 157 1.0 4.0 0.00 0.00 0.00 93 1010.8
20260509054603 74 140 0.0 5.0 0.00 0.00 0.00 93 1010.8
20260509054050 74 0 1.0 5.0 0.00 0.00 0.00 92 1010.7
20260509053551 74 163 2.0 5.0 0.00 0.00 0.00 92 1010.8
20260509053110 74 159 1.0 5.0 0.00 0.00 0.00 92 1010.9
20260509052555 74 141 1.0 5.0 0.00 0.00 0.00 92 1010.9
20260509052055 74 0 0.0 4.0 0.00 0.00 0.00 92 1010.9
20260509051558 74 0 0.0 4.0 0.00 0.00 0.00 92 1010.8
20260509051054 74 0 0.0 7.0 0.00 0.00 0.00 92 1010.9
20260509050556 74 0 1.0 7.0 0.00 0.00 0.00 92 1010.9
20260509050056 74 143 0.0 4.0 0.00 0.00 0.00 92 1010.8
20260509045553 74 162 1.0 7.0 0.00 0.00 0.00 92 1010.7
20260509045052 74 0 1.0 7.0 0.00 0.00 0.00 92 1010.7
20260509044554 74 0 0.0 5.0 0.00 0.00 0.00 92 1010.6
20260509044054 74 133 0.0 4.0 0.00 0.00 0.00 92 1010.7
20260509043551 74 0 0.0 6.0 0.00 0.00 0.00 92 1010.7
20260509043054 74 0 0.0 6.0 0.00 0.00 0.00 92 1010.5
20260509042552 74 0 1.0 6.0 0.00 0.00 0.00 92 1010.6
20260509042056 74 130 0.0 4.0 0.00 0.00 0.00 92 1010.5
20260509041617 74 125 0.0 3.0 0.00 0.00 0.00 91 1010.4
20260509041052 74 0 0.0 4.0 0.00 0.00 0.00 91 1010.5
20260509040557 74 0 0.0 4.0 0.00 0.00 0.00 91 1010.4
20260509040055 74 0 0.0 3.0 0.00 0.00 0.00 91 1010.5
20260509035554 74 0 0.0 4.0 0.00 0.00 0.00 91 1010.5
20260509035055 74 0 0.0 4.0 0.00 0.00 0.00 91 1010.6
20260509034553 74 0 0.0 4.0 0.00 0.00 0.00 91 1010.6
20260509034054 74 111 0.0 4.0 0.00 0.00 0.00 91 1010.6
20260509033554 74 0 0.0 4.0 0.00 0.00 0.00 91 1010.5
20260509033053 74 113 0.0 3.0 0.00 0.00 0.00 91 1010.4
20260509032554 74 0 0.0 3.0 0.00 0.00 0.00 91 1010.5
20260509032055 74 0 0.0 3.0 0.00 0.00 0.00 91 1010.3
20260509031555 75 0 0.0 3.0 0.00 0.00 0.00 91 1010.5
20260509031058 74 0 0.0 3.0 0.00 0.00 0.00 91 1010.3
20260509030554 75 109 0.0 4.0 0.00 0.00 0.00 91 1010.3
20260509030056 75 0 0.0 5.0 0.00 0.00 0.00 91 1010.1
20260509025553 74 0 1.0 5.0 0.00 0.00 0.00 91 1009.9
20260509025053 75 128 1.0 6.0 0.00 0.00 0.00 91 1009.9
20260509024551 75 0 1.0 6.0 0.00 0.00 0.00 91 1010.0
20260509024053 75 131 1.0 6.0 0.00 0.00 0.00 91 1009.9
20260509023553 75 0 1.0 7.0 0.00 0.00 0.00 91 1010.0
20260509023107 75 118 3.0 7.0 0.00 0.00 0.00 90 1009.9
20260509022552 75 0 0.0 6.0 0.00 0.00 0.00 90 1009.8
20260509022052 75 115 1.0 6.0 0.00 0.00 0.00 90 1010.0
20260509021555 75 115 1.0 6.0 0.00 0.00 0.00 90 1009.8
20260509021052 75 108 1.0 6.0 0.00 0.00 0.00 90 1009.8
20260509020552 75 107 0.0 6.0 0.00 0.00 0.00 90 1009.9
20260509020059 75 0 1.0 6.0 0.00 0.00 0.00 90 1009.6
20260509015554 75 138 0.0 6.0 0.00 0.00 0.00 90 1009.6
20260509015055 75 0 1.0 6.0 0.00 0.00 0.00 90 1009.5
20260509014553 75 0 2.0 6.0 0.00 0.00 0.00 90 1009.5
20260509014052 75 0 0.0 4.0 0.00 0.00 0.00 90 1009.5
20260509013554 75 101 1.0 8.0 0.00 0.00 0.00 90 1009.5
20260509013055 75 108 1.0 9.0 0.00 0.00 0.00 90 1009.4
20260509012553 75 86 1.0 9.0 0.00 0.00 0.00 90 1009.3
20260509012056 75 86 1.0 9.0 0.00 0.00 0.00 90 1009.2
20260509011557 75 109 2.0 7.0 0.00 0.00 0.00 89 1009.3
20260509011052 75 94 1.0 7.0 0.00 0.00 0.00 89 1009.2
20260509010552 75 122 0.0 4.0 0.00 0.00 0.00 89 1009.3
20260509010055 76 105 2.0 6.0 0.00 0.00 0.00 89 1009.4
20260509005552 76 102 1.0 6.0 0.00 0.00 0.00 89 1009.3
20260509005052 76 133 1.0 6.0 0.00 0.00 0.00 88 1009.3
20260509004555 76 114 1.0 6.0 0.00 0.00 0.00 88 1009.0
20260509004052 76 124 1.0 5.0 0.00 0.00 0.00 88 1009.1
20260509003552 76 0 1.0 5.0 0.00 0.00 0.00 88 1009.3
20260509003054 76 121 0.0 9.0 0.00 0.00 0.00 88 1009.2
20260509002556 76 0 2.0 9.0 0.00 0.00 0.00 87 1009.2
20260509002052 76 122 2.0 7.0 0.00 0.00 0.00 87 1009.3
20260509001554 76 111 3.0 7.0 0.00 0.00 0.00 87 1009.3
20260509001051 77 98 2.0 7.0 0.00 0.00 0.00 86 1009.4
20260509000555 77 94 2.0 9.0 0.00 0.00 0.00 86 1009.4
20260509000106 77 171 2.0 9.0 0.00 0.00 0.00 86 1009.4
20260508235552 77 124 3.0 9.0 0.00 0.00 0.00 85 1009.4
20260508235054 77 120 1.0 6.0 0.00 0.00 0.00 85 1009.4
20260508234556 77 0 2.0 6.0 0.00 0.00 0.00 85 1009.2
20260508234055 78 103 2.0 6.0 0.00 0.00 0.00 85 1009.3
20260508233552 78 117 2.0 6.0 0.00 0.00 0.00 84 1009.4
20260508233108 78 128 1.0 8.0 0.00 0.00 0.00 84 1009.4
20260508232552 78 98 2.0 8.0 0.00 0.00 0.00 84 1009.3
20260508232052 78 138 2.0 8.0 0.00 0.00 0.00 84 1009.3
20260508231556 79 77 2.0 8.0 0.00 0.00 0.00 83 1009.2
20260508231052 79 153 3.0 8.0 0.00 0.00 0.00 83 1009.2
20260508230552 79 120 3.0 7.0 0.00 0.00 0.00 83 1009.2
20260508230053 79 127 2.0 7.0 0.00 0.00 0.00 82 1009.1
20260508225552 79 111 2.0 7.0 0.00 0.00 0.00 82 1009.1
20260508225052 79 69 1.0 6.0 0.00 0.00 0.00 83 1009.2
20260508224553 80 122 1.0 6.0 0.00 0.00 0.00 82 1009.2
20260508224052 80 105 1.0 7.0 0.00 0.00 0.00 82 1009.0
20260508223558 80 142 2.0 7.0 0.00 0.00 0.00 81 1009.2
20260508223058 80 113 1.0 6.0 0.00 0.00 0.00 82 1009.1
20260508222555 80 0 2.0 8.0 0.00 0.00 0.00 82 1009.3
20260508222052 80 92 2.0 9.0 0.00 0.00 0.00 81 1009.4
20260508221554 80 77 4.0 9.0 0.00 0.00 0.00 81 1009.4
20260508221053 80 95 2.0 8.0 0.00 0.00 0.00 81 1009.4
20260508220552 80 111 3.0 8.0 0.00 0.00 0.00 81 1009.4
20260508220058 80 100 2.0 9.0 0.00 0.00 0.00 82 1009.4
20260508215552 80 92 2.0 9.0 0.00 0.00 0.00 81 1009.2
20260508215056 80 56 2.0 9.0 0.00 0.00 0.00 81 1009.4
20260508214556 80 90 4.0 8.0 0.00 0.00 0.00 81 1009.5
20260508214053 80 103 2.0 9.0 0.00 0.00 0.00 81 1009.4
20260508213551 79 130 4.0 9.0 0.00 0.00 0.00 81 1009.5
20260508213054 80 93 3.0 7.0 0.00 0.00 0.00 81 1009.5
20260508212553 80 83 1.0 7.0 0.00 0.00 0.00 81 1009.6
20260508212051 80 123 3.0 7.0 0.00 0.00 0.00 80 1009.7
20260508211558 80 110 1.0 7.0 0.00 0.00 0.00 81 1009.8
20260508211056 79 92 1.0 7.0 0.00 0.00 0.00 81 1009.8
20260508210553 79 137 2.0 7.0 0.00 0.00 0.00 81 1009.9
20260508210056 79 137 1.0 6.0 0.00 0.00 0.00 81 1010.0
20260508205551 79 101 0.0 6.0 0.00 0.00 0.00 81 1010.1
20260508205054 79 114 1.0 7.0 0.00 0.00 0.00 80 1010.0
20260508204556 79 115 3.0 7.0 0.00 0.00 0.00 80 1010.2
20260508204052 79 0 3.0 9.0 0.00 0.00 0.00 80 1010.2
20260508203555 79 124 1.0 9.0 0.00 0.00 0.00 80 1010.3
20260508203059 79 83 4.0 9.0 0.00 0.00 0.00 81 1010.3
20260508202553 79 126 4.0 9.0 0.00 0.00 0.00 81 1010.6
20260508202055 78 0 2.0 7.0 0.00 0.00 0.00 82 1010.6
20260508201555 78 138 2.0 6.0 0.00 0.00 0.00 82 1010.6
20260508201052 77 115 3.0 8.0 0.00 0.00 0.00 82 1010.6
20260508200552 77 101 3.0 8.0 0.00 0.00 0.00 82 1010.7
20260508200109 77 109 2.0 5.0 0.00 0.00 0.00 82 1010.8
20260508195551 77 122 2.0 5.0 0.00 0.00 0.00 82 1010.9
20260508195053 77 77 1.0 6.0 0.00 0.00 0.00 82 1011.0
20260508194556 77 85 2.0 7.0 0.00 0.00 0.00 82 1011.0
20260508194052 77 92 3.0 8.0 0.00 0.00 0.00 82 1011.0
20260508193552 77 94 3.0 8.0 0.00 0.00 0.00 83 1010.9
20260508193150 76 88 2.0 8.0 0.00 0.00 0.00 82 1011.1
20260508192554 76 115 3.0 10.0 0.00 0.00 0.00 84 1011.0
20260508192052 76 101 4.0 10.0 0.00 0.00 0.00 83 1011.1
20260508191559 75 126 2.0 9.0 0.00 0.00 0.00 84 1011.2
20260508191052 75 92 3.0 9.0 0.00 0.00 0.00 84 1011.3
20260508190553 75 59 4.0 7.0 0.00 0.00 0.00 83 1011.5
20260508190056 75 38 3.0 7.0 0.00 0.00 0.00 84 1011.6
20260508185554 75 69 3.0 7.0 0.00 0.00 0.00 85 1011.6
20260508185053 74 42 2.0 5.0 0.00 0.00 0.00 84 1011.8
20260508184608 74 360 2.0 5.0 0.00 0.00 0.00 84 1011.8
20260508184051 74 80 2.0 5.0 0.00 0.00 0.00 84 1011.7
20260508183553 74 179 2.0 5.0 0.00 0.00 0.00 84 1011.8
20260508183127 74 355 0.0 5.0 0.00 0.00 0.00 84 1011.8
20260508182552 74 103 2.0 6.0 0.00 0.00 0.00 84 1011.9
20260508182052 74 94 2.0 7.0 0.00 0.00 0.00 85 1012.0
20260508181605 73 92 2.0 7.0 0.00 0.00 0.00 85 1012.0
20260508181054 73 101 2.0 4.0 0.00 0.00 0.00 85 1012.1
20260508180553 73 94 0.0 6.0 0.00 0.00 0.00 85 1012.2
20260508180056 73 93 1.0 6.0 0.00 0.00 0.00 85 1012.0
20260508175552 73 75 1.0 7.0 0.00 0.00 0.00 85 1012.1
20260508175054 73 0 2.0 9.0 0.00 0.00 0.00 85 1012.1
20260508174558 72 117 2.0 9.0 0.00 0.00 0.00 85 1012.1
20260508174054 72 90 4.0 9.0 0.00 0.00 0.00 84 1012.0
20260508173554 72 126 1.0 9.0 0.00 0.00 0.00 85 1012.1
20260508173053 72 97 2.0 7.0 0.00 0.00 0.00 85 1012.1
20260508172553 72 110 2.0 7.0 0.00 0.00 0.00 85 1012.1
20260508172055 72 105 2.0 7.0 0.00 0.00 0.00 85 1012.2
20260508171557 72 74 2.0 7.0 0.00 0.00 0.00 86 1012.2
20260508171051 71 0 0.0 5.0 0.00 0.00 0.00 86 1012.6
20260508170551 71 65 0.0 5.0 0.00 0.00 0.00 86 1012.7
20260508170058 71 109 2.0 5.0 0.00 0.00 0.00 85 1012.8
20260508165552 71 101 0.0 4.0 0.00 0.00 0.00 86 1013.0
20260508165052 71 0 1.0 4.0 0.00 0.00 0.00 86 1013.2
20260508164559 71 0 1.0 4.0 0.00 0.00 0.00 85 1013.2
20260508164054 71 92 0.0 4.0 0.00 0.00 0.00 85 1013.2
20260508163556 70 92 0.0 4.0 0.00 0.00 0.00 85 1013.4
20260508163056 70 92 1.0 4.0 0.00 0.00 0.00 85 1013.3
20260508162553 70 0 0.0 4.0 0.00 0.00 0.00 86 1013.3
20260508162054 70 83 1.0 4.0 0.00 0.00 0.00 86 1013.2
20260508161553 70 81 1.0 4.0 0.00 0.00 0.00 86 1013.2
20260508161052 70 51 1.0 4.0 0.00 0.00 0.00 86 1013.3
20260508160552 70 0 1.0 4.0 0.00 0.00 0.00 85 1013.6
20260508160056 70 76 2.0 4.0 0.00 0.00 0.00 85 1013.5
20260508155554 70 0 1.0 5.0 0.00 0.00 0.00 85 1013.6
20260508155055 70 80 2.0 5.0 0.00 0.00 0.00 85 1013.6
20260508154614 70 11 2.0 5.0 0.00 0.00 0.00 85 1013.4
20260508154051 70 76 2.0 5.0 0.00 0.00 0.00 85 1013.4
20260508153552 70 90 1.0 6.0 0.00 0.00 0.00 85 1013.5
20260508153055 70 92 2.0 6.0 0.00 0.00 0.00 85 1013.4
20260508152552 70 86 2.0 10.0 0.00 0.00 0.00 85 1013.3
20260508152051 69 68 3.0 10.0 0.00 0.00 0.00 85 1013.1
20260508151556 69 74 4.0 9.0 0.00 0.00 0.00 86 1012.9
20260508151051 69 44 4.0 9.0 0.00 0.00 0.00 86 1012.9
20260508150555 68 65 3.0 6.0 0.00 0.00 0.00 86 1012.9
20260508150055 68 83 3.0 7.0 0.00 0.00 0.00 86 1013.1
20260508145552 68 24 3.0 7.0 0.00 0.00 0.00 87 1013.3
20260508145052 67 47 2.0 6.0 0.00 0.00 0.00 87 1013.4
20260508144608 67 26 3.0 6.0 0.00 0.00 0.00 87 1013.5
20260508144053 67 32 0.0 6.0 0.00 0.00 0.00 87 1013.6
20260508143554 67 0 1.0 6.0 0.00 0.00 0.00 87 1013.7
20260508143107 67 35 1.0 5.0 0.00 0.00 0.00 87 1013.7
20260508142552 67 53 1.0 5.0 0.00 0.00 0.00 87 1013.8
20260508142052 66 38 3.0 5.0 0.00 0.00 0.00 86 1013.8
20260508141605 67 34 1.0 5.0 0.00 0.00 0.00 87 1013.7
20260508141052 67 81 2.0 7.0 0.00 0.00 0.00 87 1013.6
20260508140551 66 36 3.0 7.0 0.00 0.00 0.00 87 1013.6
20260508140055 66 49 2.0 5.0 0.00 0.00 0.00 87 1013.5
20260508135553 66 74 2.0 5.0 0.00 0.00 0.00 87 1013.7
20260508135052 66 0 1.0 5.0 0.00 0.00 0.00 87 1013.7
20260508134622 66 28 3.0 5.0 0.00 0.00 0.00 87 1013.6
20260508134053 66 70 1.0 4.0 0.00 0.00 0.00 87 1013.5
20260508133551 66 38 2.0 4.0 0.00 0.00 0.00 87 1013.6
20260508133104 66 42 1.0 4.0 0.00 0.00 0.00 87 1013.7
20260508132551 66 0 1.0 4.0 0.00 0.00 0.00 87 1013.6
20260508132053 66 36 1.0 4.0 0.00 0.00 0.00 87 1013.7
20260508131617 66 0 0.0 5.0 0.00 0.00 0.00 87 1013.9
20260508131051 66 66 1.0 5.0 0.00 0.00 0.00 86 1013.8
20260508130553 66 29 2.0 5.0 0.00 0.00 0.00 86 1013.8
20260508130058 66 30 1.0 5.0 0.00 0.00 0.00 86 1013.9
20260508125554 66 34 2.0 5.0 0.00 0.00 0.00 86 1013.8
20260508125053 66 28 2.0 5.0 0.00 0.00 0.00 86 1013.6
20260508124604 65 341 0.0 6.0 0.00 0.00 0.00 86 1013.5
20260508124053 65 41 1.0 6.0 0.00 0.00 0.00 86 1013.5
20260508123552 65 38 2.0 6.0 0.00 0.00 0.00 86 1013.6
20260508123056 65 11 2.0 6.0 0.00 0.00 0.00 86 1013.5
20260508122551 65 30 2.0 6.0 0.00 0.00 0.00 86 1013.6
20260508122051 65 87 1.0 6.0 0.00 0.00 0.00 86 1013.6
20260508121556 65 5 2.0 5.0 0.00 0.00 0.00 86 1013.6
20260508121055 65 38 3.0 7.0 0.00 0.00 0.00 86 1013.6
20260508120554 65 34 2.0 7.0 0.00 0.00 0.00 86 1013.8
20260508120058 65 5 3.0 7.0 0.00 0.00 0.00 86 1013.7
20260508115554 65 28 2.0 7.0 0.00 0.00 0.00 86 1013.8
20260508115057 65 47 2.0 6.0 0.00 0.00 0.00 85 1013.9
20260508114555 65 36 1.0 6.0 0.00 0.00 0.00 85 1013.8
20260508114051 65 360 2.0 6.0 0.00 0.00 0.00 85 1014.0
20260508113554 66 56 1.0 2.0 0.00 0.00 0.00 84 1014.0
20260508113055 66 0 0.0 3.0 0.00 0.00 0.00 84 1014.0
20260508112557 66 5 0.0 3.0 0.00 0.00 0.00 84 1013.9
20260508112053 66 5 1.0 3.0 0.00 0.00 0.00 84 1013.9
20260508111556 66 0 1.0 3.0 0.00 0.00 0.00 84 1013.8
20260508111054 66 298 0.0 2.0 0.00 0.00 0.00 84 1013.7
20260508110554 66 0 0.0 2.0 0.00 0.00 0.00 84 1013.7
20260508110052 66 0 0.0 2.0 0.00 0.00 0.00 84 1013.7
20260508105557 66 294 0.0 2.0 0.00 0.00 0.00 84 1013.8
20260508105052 66 0 0.0 3.0 0.00 0.00 0.00 84 1014.0
20260508104556 66 0 0.0 4.0 0.00 0.00 0.00 84 1014.0
20260508104053 66 294 1.0 4.0 0.00 0.00 0.00 84 1014.0
20260508103551 66 0 0.0 3.0 0.00 0.00 0.00 84 1014.1
20260508103059 66 290 1.0 3.0 0.00 0.00 0.00 83 1014.0
20260508102551 66 0 0.0 1.0 0.00 0.00 0.00 84 1014.0
20260508102055 65 0 0.0 3.0 0.00 0.00 0.00 83 1014.0
20260508101553 65 0 0.0 4.0 0.00 0.00 0.00 83 1013.9
20260508101055 65 38 1.0 4.0 0.00 0.00 0.00 83 1013.8
20260508100551 65 0 1.0 4.0 0.00 0.00 0.00 83 1013.8
20260508100109 65 43 2.0 4.0 0.00 0.00 0.00 83 1013.6
20260508095555 65 56 1.0 4.0 0.00 0.00 0.00 83 1013.4
20260508095052 65 55 1.0 4.0 0.00 0.00 0.00 83 1013.7
20260508094603 65 0 1.0 4.0 0.00 0.00 0.00 83 1013.8
20260508094051 65 0 0.0 4.0 0.00 0.00 0.00 83 1013.7
20260508093554 65 72 1.0 5.0 0.00 0.00 0.00 83 1013.5
20260508093053 65 74 2.0 5.0 0.00 0.00 0.00 83 1013.2
20260508092555 65 93 1.0 4.0 0.00 0.00 0.00 83 1013.6
20260508092052 65 94 1.0 4.0 0.00 0.00 0.00 83 1013.2
20260508091604 65 78 1.0 3.0 0.00 0.00 0.00 82 1013.4
20260508091051 65 360 1.0 3.0 0.00 0.00 0.00 83 1013.8
20260508090625 65 0 0.0 2.0 0.00 0.00 0.00 83 1013.8
20260508090115 65 289 0.0 2.0 0.00 0.00 0.00 82 1014.0
20260508085555 65 0 0.0 4.0 0.00 0.00 0.00 82 1013.9
20260508085055 65 0 1.0 4.0 0.00 0.00 0.00 82 1014.1
20260508084556 65 39 1.0 4.0 0.00 0.00 0.00 82 1013.9
20260508084052 65 30 1.0 4.0 0.00 0.00 0.00 82 1013.8
20260508083553 65 313 0.0 6.0 0.00 0.00 0.00 82 1013.7
20260508083059 65 107 3.0 6.0 0.00 0.00 0.00 82 1012.9
20260508082555 65 30 1.0 4.0 0.00 0.00 0.00 82 1013.4
20260508082056 65 333 0.0 4.0 0.00 0.00 0.00 82 1013.7
20260508081607 65 0 0.0 5.0 0.00 0.00 0.00 82 1013.8
20260508081054 65 0 1.0 5.0 0.00 0.00 0.00 82 1013.6
20260508080553 65 5 1.0 4.0 0.00 0.00 0.00 82 1013.5
20260508080057 65 62 0.0 4.0 0.00 0.00 0.00 82 1013.4
20260508075554 65 5 1.0 5.0 0.00 0.00 0.00 82 1013.5
20260508075054 65 347 0.0 5.0 0.00 0.00 0.00 82 1013.8
20260508074556 65 33 1.0 5.0 0.00 0.00 0.00 82 1013.9
20260508074056 65 0 0.0 3.0 0.00 0.00 0.00 82 1014.0
20260508073552 65 28 1.0 3.0 0.00 0.00 0.00 82 1014.2
20260508073108 65 344 0.0 3.0 0.00 0.00 0.00 82 1014.1
20260508072554 65 334 0.0 2.0 0.00 0.00 0.00 82 1014.2
20260508072051 65 0 0.0 4.0 0.00 0.00 0.00 82 1014.3
20260508071602 65 350 0.0 4.0 0.00 0.00 0.00 82 1014.2
20260508071053 65 327 1.0 4.0 0.00 0.00 0.00 82 1014.6
20260508070551 65 0 1.0 3.0 0.00 0.00 0.00 82 1014.6
20260508070058 65 320 1.0 3.0 0.00 0.00 0.00 82 1014.8
20260508065553 65 0 0.0 0.0 0.00 0.00 0.00 82 1014.9
20260508065050 65 0 0.0 1.0 0.00 0.00 0.00 82 1014.8
20260508064606 65 0 0.0 3.0 0.00 0.00 0.00 82 1014.7
20260508064054 65 0 0.0 3.0 0.00 0.00 0.00 82 1014.7
20260508063554 65 15 0.0 2.0 0.00 0.00 0.00 82 1014.7
20260508063106 65 0 0.0 2.0 0.00 0.00 0.00 82 1014.7